[[[{"header":{"parameterUnit":"kt","parameterCategory":2,"dx":1,"dy":1,"la1":30.253999710083008,"la2":30.299108505249023,"lo1":-89.0895004272461,"lo2":-89.04439544677734,"nx":28,"ny":28,"refTime":"2022-10-13T21:00:00:Z","depth":0,"parameterNumber":1,"parameterNumberName":"U-component_of_WINDS"},"data":[-4.6822,-4.69,-4.6852,-4.6921,-4.6889,-4.6929,-4.6928,-4.6922,-4.6905,-4.695,-4.6968,-4.6928,-4.6895,-4.6906,-4.6925,-4.6907,-4.6921,-4.6986,-4.6955,-4.6703,-4.6665,-4.6629,-4.6607,-4.6989,-4.6989,-4.7224,-4.7226,-4.7228,-4.6653,-4.6622,-4.6642,-4.6628,-4.6647,-4.6556,-4.6539,-4.6561,-4.6599,-4.6578,-4.6591,-4.6626,-4.6649,-4.659,-4.6604,-4.6644,-4.6603,-4.6652,-4.665,-4.6647,-4.6375,-4.6352,-4.6686,-4.6686,-4.6686,-4.6686,-4.6685,-4.6685,-4.6331,-4.6379,-4.634,-4.6361,-4.634,-4.6333,-4.6371,-4.6318,-4.6338,-4.6343,-4.6279,-4.6322,-4.6292,-4.6283,-4.6267,-4.6302,-4.6239,-4.6278,-4.6288,-4.63,-4.6323,-4.6,-4.6301,-4.63,-4.6299,-4.6298,-4.6297,0,-4.608,-4.6036,-4.6048,-4.605,-4.6061,-4.6056,-4.6044,-4.6066,-4.5952,-4.5974,-4.6001,-4.6009,-4.6025,-4.6047,-4.6047,-4.6022,-4.5931,-4.5914,-4.5941,-4.5975,-4.6008,-4.5997,-4.5561,-4.5906,-4.5902,-4.59,-4.5898,-4.5896,-4.5756,-4.5815,-4.5747,-4.5764,-4.5743,-4.5771,-4.5778,-4.5672,-4.5684,-4.5654,-4.5702,-4.5721,-4.573,-4.5784,-4.5722,-4.5734,-4.5691,-4.5829,-4.5692,-4.5723,-4.5698,-4.5698,-4.5706,-4.5858,-4.5863,-4.5867,-4.587,0,-4.558,-4.5493,-4.5567,-4.5492,-4.5476,-4.5545,-4.5482,-4.5525,-4.5466,-4.5519,-4.5525,-4.5434,-4.5463,-4.5376,-4.5391,-4.5346,-4.5468,-4.5422,-4.548,-4.5467,-4.5586,-4.5578,-4.5974,-4.6023,-4.5622,-4.5626,-4.5629,0,-4.527,-4.5351,-4.5217,-4.5264,-4.5352,-4.524,-4.5331,-4.5288,-4.5255,-4.5294,-4.5172,-4.5213,-4.5094,-4.5123,-4.5056,-4.5138,-4.5139,-4.5111,-4.5093,-4.5124,-4.5129,-4.5132,-4.5116,-4.5043,-4.5041,-4.5039,-4.5037,0,-4.5005,-4.5024,-4.5099,-4.509,-4.5016,-4.5056,-4.5027,-4.4987,-4.4994,-4.4989,-4.4993,-4.4995,-4.4998,-4.5004,-4.4917,-4.4829,-4.5014,-4.4873,-4.4986,-4.4989,-4.5033,-4.5032,-4.5402,-4.5035,-4.5034,-4.5034,-4.5033,0,-4.4741,-4.4733,-4.4854,-4.479,-4.4799,-4.4849,-4.4842,-4.4862,-4.4829,-4.4788,-4.4783,-4.469,-4.475,-4.4618,-4.4701,-4.4611,-4.4622,-4.4598,-4.4604,-4.4607,-4.4462,-4.4688,-4.5046,-4.5083,-4.4609,-4.4605,-4.4602,0,-4.4465,-4.4559,-4.4461,-4.4578,-4.4609,-4.4468,-4.4521,-4.4493,-4.4441,-4.4463,-4.4406,-4.4432,-4.4314,-4.4309,-4.4362,-4.4306,-4.4424,-4.4286,-4.4328,-4.4331,-4.4346,-4.4673,-4.4749,-4.4977,-4.4555,-4.456,-4.4563,0,-4.4238,-4.4141,-4.4169,-4.4153,-4.4092,-4.4117,-4.4177,-4.4174,-4.4195,-4.4173,-4.4224,-4.4254,-4.4168,-4.4161,-4.4084,-4.4143,-4.4341,-4.4042,-4.404,-4.4104,-4.4521,-4.4595,-4.4634,-4.4277,-4.4283,-4.4287,-4.4526,0,-4.3868,-4.3901,-4.3968,-4.3933,-4.3936,-4.4001,-4.39,-4.3918,-4.3843,-4.3785,-4.3855,-4.3805,-4.3804,-4.382,-4.3746,-4.3907,-4.3867,-4.3773,-4.364,-4.3854,-4.3931,-4.3961,-4.3534,-4.353,-4.3526,-4.3523,0,0,-4.3628,-4.367,-4.3556,-4.3606,-4.3602,-4.3451,-4.353,-4.3509,-4.3469,-4.3471,-4.3395,-4.3431,-4.3393,-4.3489,-4.3547,-4.3545,-4.3566,-4.3493,-4.3751,-4.3777,-4.3801,-4.3885,-4.3918,-4.3516,-4.3514,-4.3513,-4.3512,0,-4.347,-4.3429,-4.3505,-4.3477,-4.343,-4.3362,-4.3381,-4.3308,-4.3274,-4.3337,-4.3213,-4.3242,-4.3271,-4.3249,-4.3242,-4.3479,-4.3385,-4.3485,-4.3648,-4.3716,-4.3747,-4.3774,-4.3864,-4.3897,-4.3503,-4.3503,-4.3503,0,-4.3232,-4.3176,-4.32,-4.3177,-4.3145,-4.3179,-4.3013,-4.3054,-4.3078,-4.291,-4.2975,-4.2934,-4.2895,-4.2995,-4.3035,-4.2967,-4.3227,-4.3124,-4.3146,-4.3149,-4.321,-4.3247,-4.3281,-4.2843,-4.2841,-4.2839,0,0,-4.3111,-4.3137,-4.3041,-4.3135,-4.3124,-4.3023,-4.3029,-4.2952,-4.2917,-4.2904,-4.2847,-4.2819,-4.2835,-4.2848,-4.2857,-4.298,-4.2965,-4.3047,-4.3078,-4.3104,-4.3122,-4.319,-4.3227,-4.2832,-4.2832,-4.2832,0,0,-4.3052,-4.2944,-4.2872,-4.2968,-4.2938,-4.285,-4.2914,-4.2824,-4.282,-4.2801,-4.2676,-4.2663,-4.2753,-4.2717,-4.2634,-4.2808,-4.2677,-4.2695,-4.2829,-4.2866,-4.2897,-4.2905,-4.2458,0,0,0,0,0,-4.2837,-4.2957,-4.2893,-4.2893,-4.2862,-4.2886,-4.2882,-4.2779,-4.2689,-4.2743,-4.2681,-4.2577,-4.2647,-4.257,-4.2574,-4.2669,-4.2741,-4.2757,-4.2772,-4.2973,-4.3013,-4.3048,0,0,0,0,0,0,-4.2836,-4.2837,-4.2889,-4.2808,-4.28,-4.288,-4.2707,-4.2682,-4.2681,-4.266,-4.2592,-4.2575,-4.2489,-4.2561,-4.2566,-4.2658,-4.2455,-4.2747,-4.2761,-4.2773,-4.2986,-4.302,-4.3048,0,0,0,0,0,-4.2835,-4.2836,-4.2812,-4.2806,-4.2799,-4.2691,-4.2701,-4.2679,-4.2677,-4.258,-4.2559,-4.2599,-4.2495,-4.2492,-4.2564,-4.2659,-4.2451,-4.2453,-4.2756,-4.2767,-4.2777,-4.3003,0,0,0,0,0,0,-4.2834,-4.2817,-4.2809,-4.2803,-4.2751,-4.2684,-4.267,-4.2677,-4.2594,-4.2575,-4.258,-4.2565,-4.25,-4.2497,-4.2495,-4.2665,-4.2448,-4.245,-4.2452,-4.2764,-4.2773,-4.278,0,0,0,0,0,0,-4.2816,-4.2813,-4.2806,-4.2743,-4.2728,-4.2679,-4.2666,-4.2711,-4.2596,-4.2598,-4.2583,-4.2574,-4.2503,-4.2501,-4.2499,-4.2574,-4.2445,-4.2447,-4.2449,-4.245,-4.2771,-4.2778,0,0,0,0,0,0,-4.2813,-4.281,-4.2743,-4.2733,-4.272,-4.2647,-4.2717,-4.2692,-4.2539,-4.2605,-4.2523,-4.2516,-4.2511,-4.2506,-4.2503,-4.2579,-4.2575,-4.2445,-4.2447,-4.2448,-4.2448,0,0,0,0,0,0,0,-4.281,-4.285,-4.2843,-4.2725,-4.2713,-4.2749,-4.2748,-4.2746,-4.2538,-4.2531,-4.2525,-4.2519,-4.2432,-4.2435,-4.2437,-4.2583,0,0,-4.2445,-4.2446,0,0,0,0,0,0,0,0,-4.2849,-4.285,-4.2843,-4.2842,-4.284,-4.2749,-4.2748,-4.2747,-4.2537,-4.2531,-4.2526,-4.2521,-4.2433,-4.2435,-4.2437,0,0,0,0,0,0,0,0,0,0,0,0,0,0,0,-4.2843,-4.2842,0,-4.2749,-4.2748,-4.2747,-4.2536,-4.2532,-4.2527,-4.2523,-4.2434,-4.2435,-4.2437,0,0,0,0,0,0,0,0,0,0,0,0,0,0,0,0,0,0,0,0,0,0,0,0,0,0,0,0,0,0,0,0,0,0,0,0,0,0,0,0,0,0,0,0,0,0,0,0,0,0,0,0,0,0,0,0,0,0,0,0,0,0,0,0,0,0,0,0,0]}],[{"header":{"parameterUnit":"kt","parameterCategory":2,"dx":1,"dy":1,"la1":30.253999710083008,"la2":30.299108505249023,"lo1":-89.0895004272461,"lo2":-89.04439544677734,"nx":28,"ny":28,"refTime":"2022-10-13T21:00:00:Z","depth":0,"parameterNumber":2,"parameterNumberName":"V-component_of_WINDS"},"data":[0.4026,0.3992,0.3986,0.3943,0.3931,0.39,0.3887,0.3869,0.3853,0.3814,0.379,0.378,0.376,0.3728,0.3701,0.3696,0.3683,0.3675,0.367,0.3717,0.3723,0.3729,0.3736,0.3673,0.3673,0.3621,0.3621,0.362,0.4059,0.4047,0.4023,0.3997,0.3976,0.3981,0.3959,0.3941,0.3912,0.3893,0.387,0.3834,0.3805,0.3788,0.3758,0.3739,0.3738,0.3731,0.373,0.3726,0.3777,0.3785,0.3732,0.3732,0.3732,0.3732,0.3732,0.3732,0.4115,0.4095,0.4076,0.4051,0.4036,0.4018,0.3997,0.3986,0.3962,0.3932,0.393,0.3897,0.3875,0.3836,0.3822,0.3794,0.3801,0.379,0.3786,0.3783,0.3779,0.3849,0.3789,0.3789,0.379,0.379,0.379,0,0.4154,0.4151,0.4129,0.4105,0.4086,0.4066,0.4047,0.4034,0.4025,0.4006,0.3976,0.3958,0.3921,0.3891,0.3862,0.3848,0.3848,0.3849,0.3841,0.3839,0.3841,0.3836,0.3916,0.385,0.3851,0.3851,0.3851,0.3851,0.4208,0.4186,0.4165,0.415,0.4138,0.4114,0.4098,0.4092,0.4075,0.405,0.4031,0.4003,0.3979,0.3931,0.3916,0.3888,0.3887,0.3862,0.3882,0.3882,0.3882,0.3882,0.3878,0.3857,0.3856,0.3856,0.3855,0,0.4238,0.4231,0.4195,0.4176,0.417,0.4147,0.413,0.4109,0.4101,0.407,0.4063,0.4049,0.4019,0.4009,0.3973,0.3968,0.3924,0.3926,0.393,0.3929,0.3903,0.3904,0.3827,0.3815,0.3884,0.3884,0.3883,0,0.4279,0.4251,0.4241,0.4221,0.4189,0.4184,0.4152,0.4141,0.4124,0.41,0.4102,0.4079,0.4069,0.4044,0.4037,0.4,0.3994,0.3987,0.3984,0.3985,0.3985,0.3972,0.3973,0.3985,0.3985,0.3986,0.3986,0,0.4325,0.4288,0.4256,0.4245,0.4222,0.4207,0.4196,0.4177,0.4161,0.4139,0.4128,0.4103,0.4088,0.4067,0.4058,0.4072,0.4014,0.4031,0.4005,0.4005,0.3991,0.3991,0.3928,0.3986,0.3986,0.3987,0.3987,0,0.4356,0.4336,0.4292,0.4272,0.4262,0.4241,0.4216,0.4196,0.4176,0.417,0.4153,0.4152,0.4121,0.4138,0.4095,0.4115,0.41,0.4091,0.4089,0.4083,0.4102,0.4063,0.4008,0.4,0.408,0.4081,0.4082,0,0.4408,0.4362,0.4358,0.4316,0.4293,0.4296,0.4272,0.4255,0.4246,0.4224,0.4213,0.4188,0.4199,0.4189,0.417,0.4156,0.413,0.416,0.4123,0.4121,0.4125,0.4075,0.4067,0.4022,0.4092,0.4091,0.409,0,0.4448,0.4421,0.4414,0.4402,0.4381,0.4362,0.4335,0.431,0.4295,0.4277,0.4252,0.4218,0.4223,0.4208,0.4204,0.4184,0.4148,0.4193,0.4192,0.4182,0.4097,0.409,0.4083,0.4149,0.4148,0.4147,0.4098,0,0.4491,0.4468,0.445,0.4425,0.4409,0.4384,0.4375,0.4359,0.4357,0.4348,0.4314,0.4297,0.427,0.426,0.4258,0.4217,0.4221,0.4228,0.4242,0.421,0.4193,0.4187,0.4267,0.4268,0.4268,0.4268,0,0,0.4541,0.4508,0.4505,0.448,0.4467,0.447,0.4442,0.443,0.4403,0.4392,0.4401,0.4349,0.4335,0.4293,0.4283,0.4273,0.4263,0.4275,0.4226,0.4221,0.4217,0.4199,0.4193,0.4269,0.4269,0.4269,0.4269,0,0.4555,0.4544,0.4519,0.4506,0.4486,0.4479,0.4473,0.4453,0.4446,0.4414,0.4415,0.4393,0.4353,0.4336,0.4323,0.4281,0.4281,0.4274,0.4253,0.423,0.4224,0.422,0.4202,0.4196,0.427,0.427,0.427,0,0.459,0.4577,0.4564,0.4536,0.4523,0.45,0.4513,0.4489,0.4471,0.4474,0.4441,0.443,0.4408,0.4372,0.4355,0.4361,0.4297,0.4317,0.4315,0.4312,0.4288,0.4282,0.4277,0.4346,0.4347,0.4347,0,0,0.4602,0.4582,0.4566,0.4538,0.453,0.4519,0.4506,0.4503,0.4485,0.4478,0.4464,0.4445,0.4421,0.4405,0.4383,0.4344,0.4337,0.4327,0.4323,0.432,0.4316,0.4291,0.4286,0.4348,0.4348,0.4348,0,0,0.4608,0.4589,0.4591,0.4558,0.4542,0.4523,0.4505,0.4507,0.4486,0.4488,0.448,0.4475,0.444,0.4429,0.4446,0.4387,0.4401,0.4397,0.4395,0.439,0.4386,0.4388,0.4455,0,0,0,0,0,0.4617,0.4591,0.4593,0.4587,0.4551,0.4522,0.4517,0.4511,0.4521,0.4507,0.4496,0.4498,0.4437,0.4451,0.4444,0.4424,0.4363,0.4361,0.4358,0.4347,0.4342,0.4338,0,0,0,0,0,0,0.4615,0.4607,0.4594,0.4574,0.4566,0.4523,0.4538,0.4536,0.4522,0.4524,0.45,0.4497,0.4491,0.4455,0.4448,0.4429,0.4458,0.4362,0.436,0.4358,0.4345,0.4341,0.4338,0,0,0,0,0,0.4613,0.4606,0.455,0.4575,0.4568,0.4554,0.4539,0.4537,0.4527,0.4509,0.4506,0.4524,0.449,0.4484,0.4451,0.4433,0.4462,0.446,0.4361,0.4359,0.4357,0.4343,0,0,0,0,0,0,0.4611,0.4603,0.4548,0.4546,0.4585,0.4556,0.4551,0.4539,0.4513,0.451,0.4532,0.4533,0.449,0.4485,0.448,0.4434,0.4466,0.4463,0.4462,0.4359,0.4358,0.4357,0,0,0,0,0,0,0.4607,0.4601,0.4547,0.456,0.4559,0.4558,0.4554,0.4525,0.4512,0.4537,0.4537,0.4533,0.4496,0.4486,0.4482,0.4437,0.4469,0.4466,0.4465,0.4464,0.4358,0.4357,0,0,0,0,0,0,0.4604,0.46,0.4561,0.456,0.4559,0.4531,0.4532,0.4495,0.4525,0.4538,0.4528,0.4529,0.4497,0.4493,0.4483,0.4439,0.4437,0.4469,0.4467,0.4466,0.4465,0,0,0,0,0,0,0,0.4602,0.4636,0.4563,0.456,0.4559,0.4523,0.4522,0.4522,0.4525,0.4526,0.4527,0.4528,0.4483,0.448,0.4477,0.4441,0,0,0.4469,0.4468,0,0,0,0,0,0,0,0,0.4638,0.4637,0.4563,0.4563,0.4562,0.4523,0.4523,0.4522,0.4526,0.4526,0.4527,0.4528,0.4482,0.448,0.4478,0,0,0,0,0,0,0,0,0,0,0,0,0,0,0,0.4563,0.4563,0,0.4523,0.4523,0.4522,0.4526,0.4526,0.4527,0.4528,0.4481,0.448,0.4478,0,0,0,0,0,0,0,0,0,0,0,0,0,0,0,0,0,0,0,0,0,0,0,0,0,0,0,0,0,0,0,0,0,0,0,0,0,0,0,0,0,0,0,0,0,0,0,0,0,0,0,0,0,0,0,0,0,0,0,0,0,0,0,0,0,0,0,0,0]}]]]